[[{"header":{"parameterUnit":"m.s-1","parameterCategory":1,"la1":30.2992,"la2":30.254,"lo1":-89.0895,"lo2":-89.0443,"dy":0.0025,"dx":0.0025,"nx":19,"ny":19,"refTime":"2026-04-01T03:00:00:Z","depth":0,"parameterNumber":2,"parameterNumberName":"U-component_of_WINDS"},"data":[0,0,0,-4.5609,-4.5611,-4.5723,-4.5724,-4.5877,-4.5878,0,0,0,0,0,0,0,0,0,0,0,-4.5582,-4.5584,-4.5608,-4.5611,-4.5723,-4.5724,-4.5876,-4.5878,0,0,0,0,0,0,0,0,0,0,0,-4.5582,-4.5583,-4.5585,-4.5612,-4.5723,-4.5724,-4.5876,-4.5788,0,0,0,0,0,0,0,0,0,0,-4.5677,-4.566,-4.5583,-4.5585,-4.5613,-4.5723,-4.5724,-4.5783,-4.5793,-4.583,0,-4.5866,0,-4.5875,-4.5889,-4.589,0,0,0,-4.5606,-4.5652,-4.5676,-4.5585,-4.5614,-4.5723,-4.5671,-4.5789,-4.58,-4.5844,-4.5868,-4.5874,-4.5878,-4.589,-4.5891,-4.6126,-4.6127,0,0,-4.56,-4.5606,-4.5668,-4.5684,-4.5668,-4.5668,-4.5675,-4.5795,-4.5822,-4.5869,-4.5877,-4.588,-4.5891,-4.5893,-4.6125,-4.6126,0,0,0,-4.5586,-4.5602,-4.5623,-4.5678,-4.5697,-4.5671,-4.5679,-4.5817,-4.5823,-4.5879,-4.5882,-4.5892,-4.5894,-4.6123,-4.6125,-4.6198,0,0,0,-4.5582,-4.5594,-4.562,-4.5625,-4.5695,-4.5759,-4.5698,-4.5815,-4.5828,-4.5881,-4.5892,-4.5896,-4.6122,-4.6124,-4.6192,-4.623,0,0,0,-4.5573,-4.5592,-4.5611,-4.5625,-4.5674,-4.5757,-4.577,-4.5818,-4.5831,-4.589,-4.5896,-4.6121,-4.6124,-4.6188,-4.6222,-4.6292,0,0,0,-4.5564,-4.5674,-4.5612,-4.5736,-4.5673,-4.5802,-4.5769,-4.5864,-4.5924,-4.5893,-4.6122,-4.6125,-4.6186,-4.6218,-4.6287,-4.6351,-4.6379,0,0,-4.5706,-4.5691,-4.5763,-4.5712,-4.5853,-4.5784,-4.5935,-4.5983,-4.5983,-4.6078,-4.6084,-4.6194,-4.6222,-4.6291,-4.6536,-4.6558,0,0,0,-4.581,-4.5862,-4.5898,-4.5955,-4.5996,-4.6033,-4.6058,-4.6076,-4.6157,-4.6034,-4.6239,-4.6256,-4.6296,-4.6326,-4.6345,-4.6378,-4.614,-4.614,-4.6139,-4.6017,-4.6012,-4.613,-4.6139,-4.6196,-4.6221,-4.6266,-4.6294,-4.6272,-4.6321,-4.6347,-4.6497,-4.6532,-4.6546,-4.6581,-4.6383,-4.6383,-4.6383,-4.6384,-4.6222,-4.6293,-4.6263,-4.6366,-4.636,-4.6447,-4.6476,-4.6458,-4.6537,-4.6476,-4.6511,-4.6443,-4.6571,-4.6601,-4.6389,-4.6388,-4.6387,-4.6387,-4.6386,-4.6354,-4.6388,-4.6409,-4.6492,-4.6557,-4.6562,-4.664,-4.6632,-4.6624,-4.666,-4.6686,-4.6685,-4.6681,-4.6674,-4.6674,-4.6675,-4.6675,-4.6676,-4.6676,-4.6483,-4.6505,-4.6571,-4.6625,-4.6661,-4.6707,-4.6735,-4.677,-4.6806,-4.6794,-4.6794,-4.6766,-4.6585,-4.6538,-4.6684,-4.6682,-4.6681,-4.6681,-4.668,-4.6688,-4.664,-4.6744,-4.678,-4.6842,-4.6906,-4.6896,-4.6968,-4.6996,-4.7034,-4.6999,-4.6868,-4.6852,-4.6837,-4.6798,-4.7001,-4.7001,-4.7001,-4.7001,-4.6798,-4.679,-4.6893,-4.6952,-4.7009,-4.701,-4.7126,-4.7149,-4.7165,-4.7181,-4.7151,-4.71,-4.7085,-4.7078,-4.7057,-4.7021,-4.7277,-4.7277,-4.7277,-4.6923,-4.692,-4.702,-4.7036,-4.7085,-4.7126,-4.7234,-4.7301,-4.731,-4.7288,-4.7194,-4.7182,-4.7099,-4.7073,-4.7046,-4.7015,-4.6948,0,0]},{"header":{"parameterUnit":"m.s-1","parameterCategory":1,"la1":30.2992,"la2":30.254,"lo1":-89.0895,"lo2":-89.0443,"dy":0.0025,"dx":0.0025,"nx":19,"ny":19,"refTime":"2026-04-01T03:00:00:Z","depth":0,"parameterNumber":3,"parameterNumberName":"V-component_of_WINDS"},"data":[0,0,0,3.4889,3.4891,3.495,3.495,3.5036,3.5037,0,0,0,0,0,0,0,0,0,0,0,3.4879,3.488,3.4889,3.4891,3.495,3.495,3.5036,3.5037,0,0,0,0,0,0,0,0,0,0,0,3.4879,3.488,3.4881,3.4891,3.495,3.495,3.5036,3.4987,0,0,0,0,0,0,0,0,0,0,3.4928,3.4926,3.488,3.4881,3.4891,3.4949,3.495,3.4984,3.499,3.5014,0,3.5039,0,3.5039,3.5043,3.5044,0,0,0,3.4885,3.4921,3.4931,3.4881,3.4892,3.4949,3.4921,3.4987,3.4994,3.5022,3.504,3.5043,3.5041,3.5044,3.5045,3.5209,3.521,0,0,3.4881,3.4893,3.4927,3.4935,3.4928,3.4919,3.4923,3.4991,3.5011,3.504,3.5045,3.5042,3.5045,3.5045,3.5208,3.5209,0,0,0,3.4876,3.4891,3.4899,3.4932,3.4942,3.4921,3.4926,3.5008,3.5009,3.5045,3.5043,3.5045,3.5046,3.5207,3.5209,3.5275,0,0,0,3.4874,3.4888,3.4898,3.4905,3.4941,3.4976,3.4941,3.5005,3.5012,3.5043,3.5045,3.5047,3.5206,3.5208,3.527,3.5304,0,0,0,3.4873,3.4888,3.4899,3.4906,3.4932,3.4975,3.498,3.5006,3.5011,3.5044,3.5048,3.5205,3.5207,3.5266,3.5297,3.5353,0,0,0,3.4874,3.4954,3.49,3.4989,3.4932,3.5015,3.4979,3.504,3.5076,3.5046,3.5206,3.5208,3.5265,3.5293,3.5349,3.5403,3.5426,0,0,3.4982,3.4968,3.5019,3.4973,3.5069,3.5005,3.5111,3.5131,3.5121,3.518,3.5184,3.5272,3.5297,3.5352,3.555,3.5568,0,0,0,3.5057,3.5095,3.5118,3.5154,3.5173,3.5192,3.5195,3.5203,3.5253,3.5155,3.5305,3.532,3.5352,3.5377,3.5393,3.5421,3.522,3.522,3.522,3.5227,3.5214,3.5299,3.5293,3.5328,3.5332,3.536,3.5371,3.5344,3.538,3.5398,3.552,3.555,3.5562,3.5591,3.5424,3.5424,3.5424,3.5424,3.5386,3.5438,3.5404,3.5474,3.546,3.5518,3.5525,3.5505,3.5558,3.5504,3.5532,3.5477,3.5583,3.5607,3.5429,3.5428,3.5428,3.5427,3.5427,3.5497,3.552,3.5529,3.5582,3.5624,3.5614,3.5668,3.5651,3.5635,3.5662,3.5681,3.568,3.5678,3.5672,3.5672,3.5673,3.5673,3.5674,3.5674,3.5609,3.5618,3.5666,3.5695,3.5718,3.5745,3.5751,3.5772,3.5791,3.5775,3.5775,3.5747,3.5595,3.5559,3.568,3.5679,3.5678,3.5678,3.5677,3.5779,3.5739,3.5813,3.5836,3.5869,3.5914,3.5892,3.5937,3.5952,3.5979,3.5945,3.5835,3.5819,3.5806,3.5776,3.5947,3.5947,3.5947,3.5947,3.5875,3.5865,3.5939,3.5977,3.6012,3.6001,3.6086,3.6092,3.6091,3.61,3.6072,3.603,3.6018,3.6009,3.5992,3.5964,3.6178,3.6178,3.6178,3.5979,3.5973,3.6049,3.605,3.6076,3.6098,3.6178,3.6223,3.6213,3.6187,3.6107,3.6097,3.6029,3.6007,3.598,3.5954,3.5902,0,0]}]]